TimeEST,TemperatureF,Dew PointF,Humidity,Sea Level PressureIn,VisibilityMPH,Wind Direction,Wind SpeedMPH,Gust SpeedMPH,PrecipitationIn,Events,Conditions,WindDirDegrees,DateUTC
12:54 AM,-4.0,-15.0,59,30.16,10.0,West,5.8,-,N/A,,Clear,270,2013-01-24 05:54:00
1:54 AM,-7.1,-17.0,62,30.17,10.0,Calm,Calm,-,N/A,,Clear,0,2013-01-24 06:54:00
2:54 AM,-7.1,-16.1,65,30.15,10.0,Calm,Calm,-,N/A,,Clear,0,2013-01-24 07:54:00
3:54 AM,-6.0,-16.1,62,30.14,10.0,WNW,3.5,-,N/A,,Clear,300,2013-01-24 08:54:00
4:54 AM,-4.0,-15.0,59,30.14,10.0,West,6.9,-,N/A,,Clear,280,2013-01-24 09:54:00
5:54 AM,-6.0,-16.1,62,30.16,10.0,ENE,4.6,-,N/A,,Clear,60,2013-01-24 10:54:00
6:54 AM,-9.0,-17.0,68,30.17,10.0,Calm,Calm,-,N/A,,Clear,0,2013-01-24 11:54:00
7:54 AM,-2.9,-15.0,56,30.18,10.0,Variable,3.5,-,N/A,,Clear,0,2013-01-24 12:54:00
8:54 AM,-0.0,-13.0,54,30.18,10.0,Variable,3.5,-,N/A,,Clear,0,2013-01-24 13:54:00
9:54 AM,3.0,-13.0,47,30.19,10.0,NW,13.8,21.9,N/A,,Clear,310,2013-01-24 14:54:00
10:54 AM,6.1,-13.0,41,30.18,10.0,WNW,12.7,21.9,N/A,,Partly Cloudy,300,2013-01-24 15:54:00
11:54 AM,8.1,-14.1,36,30.17,10.0,WNW,10.4,24.2,N/A,,Clear,290,2013-01-24 16:54:00
12:54 PM,9.0,-13.0,36,30.16,10.0,NW,8.1,26.5,N/A,,Clear,310,2013-01-24 17:54:00
1:54 PM,10.0,-13.0,35,30.15,10.0,NW,11.5,25.3,N/A,,Clear,310,2013-01-24 18:54:00
2:54 PM,10.9,-11.9,35,30.16,10.0,WNW,12.7,26.5,N/A,,Clear,300,2013-01-24 19:54:00
3:54 PM,12.9,-14.1,29,30.15,10.0,WNW,12.7,17.3,N/A,,Clear,300,2013-01-24 20:54:00
4:54 PM,10.9,-15.0,30,30.16,10.0,West,16.1,27.6,N/A,,Clear,280,2013-01-24 21:54:00
5:54 PM,10.0,-15.0,32,30.19,10.0,WNW,10.4,20.7,N/A,,Clear,290,2013-01-24 22:54:00
6:54 PM,9.0,-15.0,33,30.22,10.0,WNW,15.0,27.6,N/A,,Clear,290,2013-01-24 23:54:00
7:54 PM,8.1,-14.1,36,30.25,10.0,WNW,13.8,18.4,N/A,,Clear,300,2013-01-25 00:54:00
8:54 PM,6.1,-14.1,39,30.27,10.0,NW,9.2,18.4,N/A,,Clear,320,2013-01-25 01:54:00
9:54 PM,6.1,-14.1,39,30.27,10.0,WNW,9.2,25.3,N/A,,Clear,300,2013-01-25 02:54:00
10:54 PM,5.0,-14.1,41,30.30,10.0,NNW,8.1,17.3,N/A,,Clear,340,2013-01-25 03:54:00
11:54 PM,5.0,-13.0,43,30.30,10.0,WNW,8.1,25.3,N/A,,Clear,290,2013-01-25 04:54:00